When you browse on this site, cookies collect data to enhance your experience and personalize the content and advertising you see.
Visit our Privacy Policy to learn more. By continuing to use the site, you agree to this use of cookies and data.
  • In Spain
  • List of Countries
  • For 7 days
  • Water Temperature
  • Satellite Maps
  • Weather Map
  • Weather Widgets
  • user-avatar
    Login

    Hourly Weather Maksym

    Today, 18 July, Thursday

    Time Temperature Precipitation Wind Pressure Humidity
    00:00 +13°C° 0 mm 2 mps 745 mmHg 93%
    01:00 +11°C° 0 mm 3 mps 745 mmHg 95%
    02:00 +12°C° 0 mm 2 mps 745 mmHg 96%
    03:00 +11°C° 0 mm 3 mps 745 mmHg 96%
    04:00 +10°C° 0 mm 3 mps 746 mmHg 96%
    05:00 +10°C° 0 mm 3 mps 746 mmHg 96%
    06:00 +12°C° 0 mm 3 mps 746 mmHg 90%
    07:00 +13°C° 0 mm 3 mps 746 mmHg 85%
    08:00 +16°C° 0 mm 3 mps 746 mmHg 78%
    09:00 +18°C° 0 mm 4 mps 746 mmHg 72%
    10:00 +19°C° 0 mm 4 mps 746 mmHg 66%
    11:00 +20°C° 0 mm 4 mps 746 mmHg 60%
    12:00 +20°C° 0.5 mm 5 mps 746 mmHg 62%
    13:00 +21°C° 0.5 mm 5 mps 746 mmHg 64%
    14:00 +21°C° 0.5 mm 5 mps 746 mmHg 65%
    15:00 +21°C° 0.3 mm 5 mps 746 mmHg 67%
    16:00 +21°C° 0.3 mm 5 mps 747 mmHg 69%
    17:00 +20°C° 0.3 mm 4 mps 747 mmHg 71%
    18:00 +19°C° 0 mm 4 mps 747 mmHg 76%
    19:00 +18°C° 0 mm 3 mps 747 mmHg 81%
    20:00 +17°C° 0 mm 3 mps 747 mmHg 86%
    21:00 +16°C° 0 mm 3 mps 747 mmHg 88%
    22:00 +16°C° 0 mm 3 mps 748 mmHg 90%
    23:00 +14°C° 0 mm 3 mps 748 mmHg 92%

    Tomorrow, 19 July, Friday

    Time Temperature Precipitation Wind Pressure Humidity
    00:00 +14°C° 0 mm 3 mps 748 mmHg 93%
    01:00 +14°C° 0 mm 4 mps 748 mmHg 93%
    02:00 +13°C° 0 mm 4 mps 749 mmHg 94%
    03:00 +13°C° 0 mm 4 mps 749 mmHg 95%
    04:00 +13°C° 0 mm 3 mps 749 mmHg 95%
    05:00 +13°C° 0 mm 3 mps 749 mmHg 96%
    06:00 +15°C° 0 mm 4 mps 750 mmHg 90%
    07:00 +17°C° 0 mm 4 mps 750 mmHg 84%
    08:00 +19°C° 0 mm 4 mps 750 mmHg 77%
    09:00 +20°C° 0 mm 4 mps 750 mmHg 70%
    10:00 +22°C° 0 mm 4 mps 751 mmHg 63%
    11:00 +23°C° 0 mm 4 mps 751 mmHg 56%
    12:00 +25°C° 0 mm 4 mps 751 mmHg 55%
    13:00 +25°C° 0 mm 4 mps 751 mmHg 53%
    14:00 +26°C° 0 mm 4 mps 751 mmHg 52%
    15:00 +26°C° 0 mm 3 mps 751 mmHg 52%
    16:00 +26°C° 0 mm 3 mps 751 mmHg 53%
    17:00 +26°C° 0 mm 3 mps 751 mmHg 54%
    18:00 +24°C° 0.1 mm 3 mps 751 mmHg 62%
    19:00 +21°C° 0.1 mm 2 mps 751 mmHg 69%
    20:00 +19°C° 0.1 mm 2 mps 752 mmHg 77%
    21:00 +18°C° 0 mm 2 mps 752 mmHg 80%
    22:00 +17°C° 0 mm 2 mps 752 mmHg 83%
    23:00 +16°C° 0 mm 2 mps 753 mmHg 87%

    Day after tomorrow, 20 July, Saturday

    Time Temperature Precipitation Wind Pressure Humidity
    00:00 +16°C° 0 mm 2 mps 753 mmHg 88%
    01:00 +16°C° 0 mm 2 mps 753 mmHg 90%
    02:00 +15°C° 0 mm 2 mps 753 mmHg 92%
    03:00 +15°C° 0 mm 2 mps 753 mmHg 92%
    04:00 +15°C° 0 mm 2 mps 753 mmHg 92%
    05:00 +15°C° 0 mm 2 mps 753 mmHg 92%
    06:00 +17°C° 0 mm 2 mps 754 mmHg 85%
    07:00 +19°C° 0 mm 2 mps 754 mmHg 78%
    08:00 +21°C° 0 mm 2 mps 754 mmHg 72%
    09:00 +23°C° 0 mm 2 mps 754 mmHg 65%
    10:00 +24°C° 0 mm 2 mps 754 mmHg 59%
    11:00 +26°C° 0 mm 2 mps 755 mmHg 53%
    12:00 +26°C° 0 mm 2 mps 755 mmHg 52%
    13:00 +26°C° 0 mm 2 mps 754 mmHg 52%
    14:00 +26°C° 0 mm 2 mps 754 mmHg 51%
    15:00 +26°C° 0 mm 1 mps 754 mmHg 52%
    16:00 +26°C° 0 mm 1 mps 754 mmHg 53%
    17:00 +26°C° 0 mm 1 mps 754 mmHg 55%
    18:00 +25°C° 0 mm 1 mps 754 mmHg 60%
    19:00 +23°C° 0 mm 1 mps 755 mmHg 64%
    20:00 +21°C° 0 mm 1 mps 755 mmHg 69%
    21:00 +20°C° 0 mm 1 mps 755 mmHg 72%
    22:00 +19°C° 0 mm 1 mps 755 mmHg 75%
    23:00 +16°C° 0 mm 0 mps 755 mmHg 78%

    21 July, Sunday

    Time Temperature Precipitation Wind Pressure Humidity
    00:00 +16°C° 0 mm 0 mps 755 mmHg 78%
    01:00 +18°C° 0 mm 1 mps 755 mmHg 78%
    02:00 +18°C° 0 mm 1 mps 755 mmHg 79%
    03:00 +16°C° 0 mm 0 mps 755 mmHg 78%
    04:00 +16°C° 0 mm 0 mps 755 mmHg 78%
    05:00 +16°C° 0 mm 0 mps 755 mmHg 78%
    06:00 +20°C° 0 mm 1 mps 755 mmHg 73%
    07:00 +22°C° 0 mm 1 mps 755 mmHg 68%
    08:00 +23°C° 0 mm 1 mps 755 mmHg 63%
    09:00 +25°C° 0 mm 1 mps 755 mmHg 57%
    10:00 +26°C° 0 mm 1 mps 756 mmHg 51%
    11:00 +28°C° 0 mm 1 mps 756 mmHg 45%
    12:00 +28°C° 0 mm 1 mps 755 mmHg 44%
    13:00 +28°C° 0 mm 1 mps 755 mmHg 43%
    14:00 +28°C° 0 mm 1 mps 755 mmHg 42%
    15:00 +28°C° 0 mm 1 mps 755 mmHg 44%
    16:00 +28°C° 0 mm 1 mps 755 mmHg 46%
    17:00 +28°C° 0 mm 1 mps 755 mmHg 48%
    18:00 +26°C° 0 mm 1 mps 754 mmHg 53%
    19:00 +24°C° 0 mm 1 mps 754 mmHg 57%
    20:00 +22°C° 0 mm 1 mps 754 mmHg 62%
    21:00 +20°C° 0 mm 2 mps 754 mmHg 65%
    22:00 +20°C° 0 mm 2 mps 754 mmHg 67%
    23:00 +19°C° 0 mm 2 mps 754 mmHg 70%

    22 July, Monday

    Time Temperature Precipitation Wind Pressure Humidity
    00:00 +19°C° 0 mm 2 mps 754 mmHg 73%
    01:00 +18°C° 0 mm 2 mps 754 mmHg 75%
    02:00 +18°C° 0 mm 2 mps 753 mmHg 78%
    03:00 +18°C° 0 mm 2 mps 753 mmHg 79%
    04:00 +18°C° 0 mm 3 mps 753 mmHg 79%
    05:00 +18°C° 0 mm 3 mps 753 mmHg 80%
    06:00 +18°C° 0.8 mm 3 mps 753 mmHg 83%
    07:00 +19°C° 0.8 mm 3 mps 753 mmHg 86%
    08:00 +19°C° 0.8 mm 2 mps 753 mmHg 89%
    09:00 +20°C° 1.1 mm 3 mps 752 mmHg 89%
    10:00 +20°C° 1.1 mm 3 mps 752 mmHg 90%
    11:00 +20°C° 1.1 mm 3 mps 752 mmHg 91%
    12:00 +23°C° 0.3 mm 2 mps 752 mmHg 83%
    13:00 +25°C° 0.3 mm 2 mps 752 mmHg 76%
    14:00 +27°C° 0.3 mm 2 mps 751 mmHg 69%
    15:00 +26°C° 1.5 mm 2 mps 751 mmHg 72%
    16:00 +26°C° 1.5 mm 3 mps 751 mmHg 74%
    17:00 +25°C° 1.5 mm 3 mps 751 mmHg 77%
    18:00 +24°C° 0.5 mm 3 mps 751 mmHg 81%
    19:00 +22°C° 0.5 mm 3 mps 751 mmHg 85%
    20:00 +20°C° 0.5 mm 2 mps 751 mmHg 90%
    21:00 +20°C° 0 mm 3 mps 751 mmHg 91%
    22:00 +19°C° 0 mm 3 mps 751 mmHg 92%
    23:00 +18°C° 0 mm 3 mps 751 mmHg 93%

    23 July, Tuesday

    Time Temperature Precipitation Wind Pressure Humidity
    00:00 +18°C° 0 mm 3 mps 751 mmHg 94%
    01:00 +17°C° 0 mm 3 mps 751 mmHg 95%
    02:00 +17°C° 0 mm 3 mps 750 mmHg 96%
    03:00 +17°C° 0 mm 3 mps 750 mmHg 96%
    04:00 +17°C° 0 mm 3 mps 750 mmHg 96%
    05:00 +16°C° 0 mm 3 mps 750 mmHg 96%
    06:00 +18°C° 0 mm 3 mps 750 mmHg 93%
    07:00 +19°C° 0 mm 4 mps 750 mmHg 89%
    08:00 +20°C° 0 mm 4 mps 750 mmHg 86%
    09:00 +20°C° 0.2 mm 4 mps 750 mmHg 84%
    10:00 +21°C° 0.2 mm 5 mps 750 mmHg 82%
    11:00 +21°C° 0.2 mm 5 mps 750 mmHg 79%
    12:00 +21°C° 0.1 mm 5 mps 750 mmHg 77%
    13:00 +21°C° 0.1 mm 5 mps 749 mmHg 75%
    14:00 +22°C° 0.1 mm 6 mps 749 mmHg 72%
    15:00 +22°C° 0.1 mm 6 mps 749 mmHg 72%
    16:00 +22°C° 0.1 mm 5 mps 749 mmHg 72%
    17:00 +23°C° 0.1 mm 5 mps 749 mmHg 72%
    18:00 +21°C° 0.1 mm 5 mps 749 mmHg 78%
    19:00 +20°C° 0.1 mm 4 mps 749 mmHg 84%
    20:00 +19°C° 0.1 mm 4 mps 749 mmHg 90%
    21:00 +18°C° 0 mm 4 mps 749 mmHg 91%
    22:00 +17°C° 0 mm 4 mps 749 mmHg 91%
    23:00 +16°C° 0 mm 5 mps 749 mmHg 92%
    Show more